Weather reports worldwide

Advertisment
Tain Range, United Kingdom (3062): temperature & dewpoint: 14.07.2018 23:00:00 - 20.07.2018 23:00:00 (BST)Tain Range, United Kingdom (3062): temperature -20cm & temperature -100cm: 14.07.2018 23:00:00 - 20.07.2018 23:00:00 (BST)Tain Range, United Kingdom (3062): wind speed: 14.07.2018 23:00:00 - 20.07.2018 23:00:00 (BST)Tain Range, United Kingdom (3062): wind direction: 14.07.2018 23:00:00 - 20.07.2018 23:00:00 (BST)Tain Range, United Kingdom (3062): reduced air pressure: 14.07.2018 23:00:00 - 20.07.2018 23:00:00 (BST)Tain Range, United Kingdom (3062): visibility: 14.07.2018 23:00:00 - 20.07.2018 23:00:00 (BST)Tain Range, United Kingdom (3062): precipitation: 14.07.2018 23:00:00 - 20.07.2018 23:00:00 (BST)
Date & Time tt [°C] td [°C] tt -20cm [°C] tt -100cm [°C] ff [km/h] ff [kn] dd ppp [hPa] vv [km] rr [mm]
20.07.2018 23:00:00 14,6 14,1 - - 2 1 S 1012,9 24 0,0
20.07.2018 22:00:00 14,5 14,0 - - 5 3 E 1012,7 30 0,0
20.07.2018 21:00:00 14,6 14,0 - - 13 7 ENE 1012,5 45 0,2
20.07.2018 20:00:00 14,8 14,4 - - 13 7 NE 1012,1 40 0,0
20.07.2018 19:00:00 15,4 15,0 - - 15 8 N 1012,1 5 0,0
20.07.2018 18:00:00 16,5 15,2 - - 13 7 NE 1011,3 10 0,0
20.07.2018 17:00:00 18,1 15,4 - - 15 8 NW 1011,0 30 0,0
20.07.2018 16:00:00 17,4 15,0 - - 8 4 WNW 1011,0 20 0,0
20.07.2018 15:00:00 16,4 15,0 - - 9 5 WNW 1010,9 4,1 0,0
20.07.2018 14:00:00 17,6 15,3 - - 13 7 WSW 1010,6 13 0,0
20.07.2018 13:00:00 17,7 14,0 - - 11 6 WSW 1010,4 50 0,0
20.07.2018 12:00:00 17,1 14,9 - - 15 8 SW 1010,4 29 0,0
20.07.2018 11:00:00 14,7 13,9 - - 13 7 SSW 1010,5 40 0,0
20.07.2018 10:00:00 13,7 13,2 16,7 14,2 11 6 SW 1010,8 21 0,0
20.07.2018 09:00:00 13,3 12,8 - - 15 8 SSW 1010,8 7 0,0
20.07.2018 08:00:00 12,9 12,5 - - 11 6 SSW 1010,8 10 0,0
20.07.2018 07:00:00 12,8 12,3 - - 13 7 SSW 1010,9 7 0,0
20.07.2018 06:00:00 12,5 12,0 - - 9 5 SSW 1011,0 12 0,0
20.07.2018 05:00:00 12,6 11,7 - - 13 7 SSW 1011,3 28 0,0
20.07.2018 04:00:00 12,6 11,9 - - 11 6 S 1011,7 45 0,0
20.07.2018 03:00:00 12,4 11,3 - - 16 9 SSW 1012,2 12 0,0
20.07.2018 02:00:00 12,5 11,1 - - 15 8 SW 1012,9 45 0,0
20.07.2018 01:00:00 12,7 11,1 - - 16 9 SW 1013,3 50 0,0
20.07.2018 00:00:00 12,9 11,0 - - 21 11 SSW 1013,7 35 0,0
19.07.2018 23:00:00 13,6 11,0 - - 13 7 SSW 1014,2 50 0,0
19.07.2018 22:00:00 15,0 10,0 - - 15 8 SW 1014,6 50 0,0
19.07.2018 21:00:00 16,5 9,2 - - 11 6 WSW 1014,7 50 0,2
19.07.2018 20:00:00 17,2 8,6 - - 16 9 SW 1014,8 45 0,0
19.07.2018 19:00:00 18,5 8,4 - - 15 8 SW 1014,6 40 0,0
19.07.2018 18:00:00 19,7 7,7 - - 21 11 SW 1014,8 50 0,0
19.07.2018 17:00:00 20,9 8,4 - - 22 12 SW 1015,3 45 0,0
19.07.2018 16:00:00 21,0 8,2 - - 28 15 WSW 1015,7 45 0,0
19.07.2018 15:00:00 20,9 8,0 - - 26 14 SW 1016,1 50 0,0
19.07.2018 14:00:00 21,0 8,7 - - 24 13 WSW 1016,3 30 0,0
19.07.2018 13:00:00 20,8 9,7 - - 21 11 SW 1016,6 30 0,0
19.07.2018 12:00:00 19,9 9,2 - - 16 9 SW 1016,9 35 0,0
19.07.2018 11:00:00 18,9 8,2 - - 16 9 SSW 1017,1 50 0,0
19.07.2018 10:00:00 18,0 9,3 16,4 14,0 15 8 SSW 1017,4 50 0,0
19.07.2018 09:00:00 16,5 11,4 - - 4 2 SW 1017,9 50 0,0
19.07.2018 08:00:00 14,4 11,0 - - 8 4 SW 1018,2 40 0,0
19.07.2018 07:00:00 13,1 11,6 - - 5 3 SSW 1018,4 50 0,0
19.07.2018 06:00:00 11,3 10,6 - - 8 4 SW 1018,4 35 0,0
19.07.2018 05:00:00 12,1 11,5 - - 8 4 WSW 1018,4 40 0,0
19.07.2018 04:00:00 11,9 11,5 - - 4 2 W 1018,4 18 0,0
19.07.2018 03:00:00 12,0 11,6 - - 9 5 NNW 1018,6 30 0,0
19.07.2018 02:00:00 12,1 11,8 - - 11 6 NW 1018,9 25 0,0
19.07.2018 01:00:00 11,7 11,1 - - 2 1 NNW 1019,0 22 0,0
19.07.2018 00:00:00 12,9 12,3 - - 8 4 NE 1019,1 40 0,0
18.07.2018 23:00:00 13,2 12,0 - - 9 5 NE 1018,9 45 0,0
18.07.2018 22:00:00 13,7 12,3 - - 9 5 NNE 1018,9 45 0,0
18.07.2018 21:00:00 14,1 11,2 - - 9 5 NNE 1018,7 50 0,0
18.07.2018 20:00:00 17,1 7,8 - - 8 4 NNW 1018,4 40 0,0
18.07.2018 19:00:00 17,2 7,9 - - 13 7 NW 1018,2 50 0,0
18.07.2018 18:00:00 17,1 8,7 - - 13 7 WNW 1018,1 50 0,2
18.07.2018 17:00:00 17,3 8,0 - - 9 5 WNW 1017,9 50 0,0
18.07.2018 16:00:00 17,4 8,5 - - 8 4 NW 1017,8 50 0,0
18.07.2018 15:00:00 16,9 6,6 - - 8 4 WNW 1017,6 45 0,0
18.07.2018 14:00:00 16,6 9,2 - - 5 3 WNW 1017,3 50 0,0
18.07.2018 13:00:00 15,9 9,0 - - 8 4 SE 1016,8 40 0,0
18.07.2018 12:00:00 14,8 10,1 - - 11 6 WSW 1016,6 9 0,0
18.07.2018 11:00:00 15,8 12,4 - - 8 4 WSW 1016,3 45 0,0
18.07.2018 10:00:00 14,8 10,0 16,4 13,9 5 3 SSW 1016,3 50 0,0
18.07.2018 09:00:00 13,9 10,1 - - 9 5 WNW 1016,1 35 0,0
18.07.2018 08:00:00 13,2 10,9 - - 11 6 WNW 1015,8 50 0,0
18.07.2018 07:00:00 12,7 11,7 - - 5 3 W 1015,4 21 0,0
18.07.2018 06:00:00 11,2 10,9 - - 4 2 SSW 1015,0 40 0,0
18.07.2018 05:00:00 10,6 10,3 - - 5 3 W 1014,7 45 0,0
18.07.2018 04:00:00 9,7 9,4 - - 8 4 W 1014,6 40 0,0
18.07.2018 03:00:00 10,8 10,0 - - 8 4 WSW 1014,5 50 0,0
18.07.2018 02:00:00 11,8 10,2 - - 9 5 NW 1014,4 30 0,0
18.07.2018 01:00:00 11,9 10,6 - - 9 5 WNW 1014,6 50 0,0
18.07.2018 00:00:00 11,6 11,0 - - 8 4 WSW 1014,5 35 0,0
17.07.2018 23:00:00 12,1 11,4 - - 5 3 NNW 1014,0 45 0,0
17.07.2018 22:00:00 13,2 12,3 - - 2 1 N 1013,7 30 0,0
17.07.2018 21:00:00 13,9 13,2 - - 8 4 NE 1013,4 19 0,2
17.07.2018 20:00:00 14,0 12,6 - - 5 3 NNW 1013,1 50 0,0
17.07.2018 19:00:00 15,4 11,4 - - 9 5 NNE 1012,4 30 0,0
17.07.2018 18:00:00 16,2 13,8 - - 5 3 SE 1012,3 50 0,0
17.07.2018 17:00:00 15,3 12,6 - - 5 3 WSW 1012,2 40 0,0
17.07.2018 16:00:00 15,5 11,6 - - 4 2 NNW 1012,0 19 0,0
17.07.2018 15:00:00 15,8 11,5 - - 21 11 NW 1012,0 45 0,0
17.07.2018 14:00:00 15,7 12,7 - - 18 10 WNW 1012,0 45 0,0
17.07.2018 13:00:00 14,3 12,1 - - 9 5 NW 1012,0 26 0,0
17.07.2018 12:00:00 17,9 10,3 - - 8 4 SE 1011,4 40 0,0
17.07.2018 11:00:00 18,2 10,4 - - 8 4 S 1011,5 30 0,0
17.07.2018 10:00:00 15,9 9,9 17,0 14,2 8 4 NNW 1011,5 50 0,0
17.07.2018 09:00:00 15,5 11,2 - - 8 4 W 1011,6 35 0,0
17.07.2018 08:00:00 14,0 10,8 - - 9 5 SSW 1011,3 45 0,0
17.07.2018 07:00:00 13,7 10,7 - - 8 4 SW 1011,2 45 0,0
17.07.2018 06:00:00 13,3 10,7 - - 5 3 SSW 1011,1 50 0,0
17.07.2018 05:00:00 12,8 10,6 - - 5 3 SW 1010,9 28 0,2
17.07.2018 04:00:00 12,9 10,6 - - 2 1 ENE 1011,2 50 0,0
17.07.2018 03:00:00 13,5 10,9 - - 8 4 SSE 1011,2 50 0,0
17.07.2018 02:00:00 13,1 12,3 - - 5 3 E 1011,5 35 0,0
17.07.2018 01:00:00 13,2 12,6 - - 8 4 SSE 1011,6 13 0,0
17.07.2018 00:00:00 14,4 14,0 - - 5 3 ESE 1011,8 23 0,0
16.07.2018 23:00:00 14,4 13,9 - - 5 3 NE 1011,6 17 0,0
16.07.2018 22:00:00 14,8 13,9 - - 5 3 NW 1011,4 17 0,0
16.07.2018 21:00:00 15,7 14,3 - - 11 6 N 1011,0 26 0,0
16.07.2018 20:00:00 16,4 14,4 - - 9 5 NE 1010,7 29 0,0
16.07.2018 19:00:00 17,6 14,2 - - 15 8 NNE 1010,4 30 0,0
16.07.2018 18:00:00 18,7 12,6 - - 11 6 N 1010,2 50 0,0
16.07.2018 17:00:00 19,1 12,8 - - 13 7 S 1010,0 50 0,0
16.07.2018 16:00:00 18,7 11,9 - - 13 7 S 1010,1 40 0,0
16.07.2018 15:00:00 19,0 11,2 - - 11 6 S 1010,1 30 0,0
16.07.2018 14:00:00 19,6 12,5 - - 15 8 SSE 1010,2 50 0,0
16.07.2018 13:00:00 19,0 10,6 - - 11 6 S 1010,3 29 0,0
16.07.2018 12:00:00 17,7 10,5 - - 11 6 SSW 1010,5 50 0,2
16.07.2018 11:00:00 17,4 10,2 - - 13 7 SW 1010,3 50 0,0
16.07.2018 10:00:00 16,3 13,3 17,2 14,4 4 2 SSE 1010,2 11 0,0
16.07.2018 09:00:00 15,4 13,5 - - 5 3 ESE 1010,3 50 0,0
16.07.2018 08:00:00 14,6 13,2 - - 8 4 WNW 1010,0 50 0,0
16.07.2018 07:00:00 13,7 13,2 - - 8 4 W 1009,7 35 0,0
16.07.2018 06:00:00 13,3 12,9 - - 13 7 WNW 1009,6 5 0,0
16.07.2018 05:00:00 13,5 12,6 - - 21 11 WNW 1009,4 8 0,0
16.07.2018 04:00:00 14,5 12,4 - - 24 13 WNW 1009,0 50 0,0
16.07.2018 03:00:00 16,5 15,4 - - 8 4 WSW 1008,7 50 0,0
16.07.2018 02:00:00 17,1 15,5 - - 8 4 SSW 1009,0 35 0,0
16.07.2018 01:00:00 17,1 15,8 - - 8 4 SE 1009,1 50 0,0
16.07.2018 00:00:00 17,4 15,9 - - 9 5 SSE 1009,3 40 0,0
15.07.2018 23:00:00 18,3 15,9 - - 16 9 S 1009,4 50 0,0
15.07.2018 22:00:00 18,3 16,6 - - 13 7 S 1009,6 40 0,0
15.07.2018 21:00:00 18,4 16,7 - - 13 7 S 1009,6 40 0,2
15.07.2018 20:00:00 18,8 17,3 - - 9 5 ESE 1009,7 35 0,0
15.07.2018 19:00:00 18,8 17,4 - - 13 7 S 1009,8 40 0,0
15.07.2018 18:00:00 18,8 17,6 - - 13 7 SE 1010,0 50 0,0
15.07.2018 17:00:00 19,6 17,7 - - 15 8 SSE 1010,2 35 0,0
15.07.2018 16:00:00 21,0 17,7 - - 11 6 S 1010,4 50 0,0
15.07.2018 15:00:00 20,4 18,0 - - 8 4 S 1010,6 24 0,0
15.07.2018 14:00:00 19,8 17,5 - - 9 5 S 1010,7 40 0,2
15.07.2018 13:00:00 19,4 17,5 - - 9 5 SSW 1010,9 26 0,0
15.07.2018 12:00:00 19,5 16,7 - - 9 5 SSW 1011,1 19 0,0
15.07.2018 11:00:00 19,5 16,2 - - 13 7 SSW 1010,9 35 0,0
15.07.2018 10:00:00 19,2 16,5 16,2 14,0 11 6 S 1010,9 45 0,0
15.07.2018 09:00:00 18,0 16,3 - - 8 4 S 1011,0 45 0,0
15.07.2018 08:00:00 17,4 15,8 - - 11 6 SSW 1011,0 26 0,0
15.07.2018 07:00:00 17,1 15,8 - - 15 8 S 1010,8 50 0,0
15.07.2018 06:00:00 16,7 15,7 - - 5 3 WSW 1010,8 50 0,0
15.07.2018 05:00:00 16,6 15,5 - - 15 8 S 1010,5 45 0,0
15.07.2018 04:00:00 16,9 15,4 - - 16 9 SSW 1010,9 50 0,0
15.07.2018 03:00:00 16,9 15,2 - - 13 7 SSW 1011,3 40 0,2
15.07.2018 02:00:00 17,4 15,1 - - 15 8 S 1011,5 29 0,0
15.07.2018 01:00:00 17,2 15,1 - - 16 9 SSW 1011,7 50 0,0
15.07.2018 00:00:00 16,7 15,1 - - 13 7 SSW 1012,0 45 0,0
14.07.2018 23:00:00 16,7 15,2 - - 8 4 S 1012,3 35 0,0

tt = temperature
td = dewpoint
tt -20cm = temperature -20cm
tt -100cm = temperature -100cm
ff = wind speed
dd = wind direction
ppp = reduced air pressure
vv = visibility
rr = precipitation

Next stations